Overview Statistics Trail Chart Weather Telemetry Raw packets
 

This is the latest recevied weather packets stored in our database for station/object KC5DAQ-26. If no packets are shown the sender has not sent any weather packets the latest 10 day(s).

<< 389 390 391 392 393 394 395 >>
Time Temp. Humidity Pressure Rain* Wind** Luminosity Snow
1788124443 36.11° C 52% 1016.6 hPa 0 mm - 793 W/m² -
1788124382 35.56° C 54% 1016.6 hPa 0 mm - 793 W/m² -
1788124322 35.56° C 52% 1016.6 hPa 0 mm - 798 W/m² -
1788124264 35.56° C 54% 1016.6 hPa 0 mm - 791 W/m² -
1788124203 35.56° C 52% 1016.6 hPa 0 mm - 789 W/m² -
1788124143 35.56° C 54% 1016.7 hPa 0 mm - 784 W/m² -
1788124084 35.56° C 54% 1016.7 hPa 0 mm - 768 W/m² -
1788124024 35.56° C 53% 1016.7 hPa 0 mm - 765 W/m² -
1788123962 35.56° C 54% 1016.7 hPa 0 mm - 758 W/m² -
1788123902 35.56° C 50% 1016.8 hPa 0 mm - 564 W/m² -
1788123843 35.56° C 53% 1016.8 hPa 0 mm - 448 W/m² -
1788123782 35.56° C 53% 1016.9 hPa 0 mm - 468 W/m² -
1788123723 35.56° C 52% 1016.8 hPa 0 mm - 789 W/m² -
1788123664 35° C 56% 1016.8 hPa 0 mm - 789 W/m² -
1788123604 35° C 56% 1016.8 hPa 0 mm - 789 W/m² -
1788123544 35° C 56% 1016.9 hPa 0 mm - 789 W/m² -
1788123481 35° C 56% 1016.9 hPa 0 mm - 789 W/m² -
1788123424 35° C 54% 1016.9 hPa 0 mm - 809 W/m² -
1788123362 35° C 54% 1016.9 hPa 0 mm - 812 W/m² -
1788123302 35° C 52% 1016.9 hPa 0 mm - 624 W/m² -
1788123244 35° C 52% 1016.9 hPa 0 mm - 199 W/m² -
1788123183 35° C 54% 1016.9 hPa 0 mm - 193 W/m² -
1788123122 35° C 53% 1016.9 hPa 0 mm - 206 W/m² -
1788123065 35.56° C 54% 1016.9 hPa 0 mm - 183 W/m² -
1788123005 35.56° C 54% 1016.9 hPa 0 mm - 195 W/m² -

* Rain latest hour (hover to see other rain measurements)
** Current wind speed in m/s (hover to see current wind gust speed)